CZ-6A R/B, 61570

Orbit data source: Space-Track

CZ-6A R/B, 61570 is space debris in LEO originally from a launch on Tue, 15 Oct 2024 UTC launched from the Taiyaun Space Center, China (TSC). Debris objects in space refer to the collection of defunct objects orbiting the Earth. Examples of debris include non-operational satellites, rocket bodies, and fragments generated from explosions, collisions, or faulty payload assembly.

Loading next visibility...
Identifier
61570, 2024-185U
Orbit
LEO
Country
Flag of CNCN / PRC
Related business
Manufacturer
SAST
Mission
Spacecraft
Bus & Motor
CZ-6A STAGE 2, YF-115
Mass
~6,000 kg wet, ~6,000 kg dry
Launch date (UTC)
2024-10-15 (2 years ago)
Launch vehicle
Unknown
Launch site
Taiyaun Space Center, China (TSC)
Object type
Payload
Rocket body
Debris
Shape & HBR
Unknown shape, 5.5 m
Radar Cross Section
Large (>1 m²)

Expand to show TLE details & history
Last TLE update: 10 hours ago

TLE from 10 hours ago
0 CZ-6A R/B
1 61570U 24185U   26169.24020730  .00000200  00000-0  42511-4 0  9990
2 61570  89.0231  54.9755 0097740 190.8733 169.0364 14.51785979 87816
Epoch: 2026-06-18T05:45Z
TLE epoch observation values (Epoch: 2026-06-18T05:45:53.910Z)
Latitude
-0.00007°
Longitude
62.0145°
Altitude
791.068 km
Speed
7.422 km/s
True Right ascension
03h 39m 54s
True Declination
0° 00' 00"
Sunlit
Object was in daylight at epoch
Visualization orbit readout
Latitude
Unknown
Longitude
Unknown
Altitude
Unknown
Speed
Unknown
Apparent Right ascension
Unknown
Apparent Declination
Unknown
Sunlit
N/A
Visualization observer readout
Local Sidereal Time
02:16:44
Azimuth
Unknown
Elevation
Unknown
Doppler factor
Unknown
Orbital elements
Apogee altitude
786.072 km
Perigee altitude
647.381 km
Semi-major axis
7,094.864 km
Eccentricity
0.00977
Inclination
89.0231°
RAAN
54.9755°
Arg. of periapsis
190.8733°
True anomaly
169.24688°
Mean anomaly
169.0364°
Eccentric anomaly
169.14189°
Mean motion
3.63184 °/min
Orbital period
99.12 mins
BSTAR
0.000042511
Loading maneuver chart data...
Computing Atmospheric mass density...
Loading historical data...
Loading historical data...
Loading historical data...
Loading historical data...
Loading historical data...
Loading historical data...
Loading historical data...

Documentation

Showing up to 5 results
|